Year,Month,Day,Hour,Minute,Value (Times are PST for temperature in C)
2015,07,17,00,00,14.10
2015,07,17,00,01,14.10
2015,07,17,00,02,14.10
2015,07,17,00,03,14.10
2015,07,17,00,04,14.10
2015,07,17,00,05,14.10
2015,07,17,00,06,14.10
2015,07,17,00,07,14.20
2015,07,17,00,08,14.20
2015,07,17,00,09,14.20
2015,07,17,00,10,14.20
2015,07,17,00,11,14.20
2015,07,17,00,12,14.20
2015,07,17,00,13,14.20
2015,07,17,00,14,14.20
2015,07,17,00,15,14.20
2015,07,17,00,16,14.20
2015,07,17,00,17,14.20
2015,07,17,00,18,14.20
2015,07,17,00,19,14.20
2015,07,17,00,20,14.10
2015,07,17,00,21,14.20
2015,07,17,00,22,14.20
2015,07,17,00,23,14.20
2015,07,17,00,24,14.20
2015,07,17,00,25,14.20
2015,07,17,00,26,14.20
2015,07,17,00,27,14.20
2015,07,17,00,28,14.30
2015,07,17,00,29,14.30
2015,07,17,00,30,14.30
2015,07,17,00,31,14.20
2015,07,17,00,32,14.20
2015,07,17,00,33,14.20
2015,07,17,00,34,14.10
2015,07,17,00,35,14.00
2015,07,17,00,36,14.00
2015,07,17,00,37,13.90
2015,07,17,00,38,13.80
2015,07,17,00,39,13.80
2015,07,17,00,40,13.70
2015,07,17,00,41,13.60
2015,07,17,00,42,13.60
2015,07,17,00,43,13.50
2015,07,17,00,44,13.50
2015,07,17,00,45,13.50
2015,07,17,00,46,13.50
2015,07,17,00,47,13.40
2015,07,17,00,48,13.40
2015,07,17,00,49,13.40
2015,07,17,00,50,13.40
2015,07,17,00,51,13.40
2015,07,17,00,52,13.40
2015,07,17,00,53,13.40
2015,07,17,00,54,13.30
2015,07,17,00,55,13.30
2015,07,17,00,56,13.30
2015,07,17,00,57,13.30
2015,07,17,00,58,13.30
2015,07,17,00,59,13.20
2015,07,17,01,00,13.20
2015,07,17,01,01,13.20
2015,07,17,01,02,13.20
2015,07,17,01,03,13.20
2015,07,17,01,04,13.20
2015,07,17,01,05,13.20
2015,07,17,01,06,13.20
2015,07,17,01,07,13.20
2015,07,17,01,08,13.20
2015,07,17,01,09,13.20
2015,07,17,01,10,13.20
2015,07,17,01,11,13.20
2015,07,17,01,12,13.20
2015,07,17,01,13,13.20
2015,07,17,01,14,13.10
2015,07,17,01,15,13.10
2015,07,17,01,16,13.10
2015,07,17,01,17,13.10
2015,07,17,01,18,13.00
2015,07,17,01,19,13.00
2015,07,17,01,20,13.00
2015,07,17,01,21,12.90
2015,07,17,01,22,12.90
2015,07,17,01,23,12.90
2015,07,17,01,24,12.90
2015,07,17,01,25,12.80
2015,07,17,01,26,12.80
2015,07,17,01,27,12.80
2015,07,17,01,28,12.80
2015,07,17,01,29,12.80
2015,07,17,01,30,12.80
2015,07,17,01,31,12.90
2015,07,17,01,32,12.90
2015,07,17,01,33,12.90
2015,07,17,01,34,12.90
2015,07,17,01,35,12.90
2015,07,17,01,36,13.00
2015,07,17,01,37,13.00
2015,07,17,01,38,13.00
2015,07,17,01,39,13.00
2015,07,17,01,40,13.00
2015,07,17,01,41,13.00
2015,07,17,01,42,13.00
2015,07,17,01,43,13.00
2015,07,17,01,44,12.90
2015,07,17,01,45,12.90
2015,07,17,01,46,12.90
2015,07,17,01,47,12.90
2015,07,17,01,48,12.90
2015,07,17,01,49,12.90
2015,07,17,01,50,12.90
2015,07,17,01,51,12.90
2015,07,17,01,52,12.90
2015,07,17,01,53,12.90
2015,07,17,01,54,13.00
2015,07,17,01,55,12.90
2015,07,17,01,56,12.90
2015,07,17,01,57,12.90
2015,07,17,01,58,12.90
2015,07,17,01,59,12.80
2015,07,17,02,00,12.80
2015,07,17,02,01,12.80
2015,07,17,02,02,12.80
2015,07,17,02,03,12.80
2015,07,17,02,04,12.80
2015,07,17,02,05,12.80
2015,07,17,02,06,12.80
2015,07,17,02,07,12.90
2015,07,17,02,08,12.90
2015,07,17,02,09,12.90
2015,07,17,02,10,12.90
2015,07,17,02,11,12.90
2015,07,17,02,12,12.90
2015,07,17,02,13,12.90
2015,07,17,02,14,12.80
2015,07,17,02,15,12.80
2015,07,17,02,16,12.80
2015,07,17,02,17,12.70
2015,07,17,02,18,12.70
2015,07,17,02,19,12.70
2015,07,17,02,20,12.70
2015,07,17,02,21,12.70
2015,07,17,02,22,12.70
2015,07,17,02,23,12.70
2015,07,17,02,24,12.70
2015,07,17,02,25,12.70
2015,07,17,02,26,12.70
2015,07,17,02,27,12.70
2015,07,17,02,28,12.80
2015,07,17,02,29,12.80
2015,07,17,02,30,12.80
2015,07,17,02,31,12.80
2015,07,17,02,32,12.80
2015,07,17,02,33,12.80
2015,07,17,02,34,12.80
2015,07,17,02,35,12.80
2015,07,17,02,36,12.80
2015,07,17,02,37,12.80
2015,07,17,02,38,12.80
2015,07,17,02,39,12.80
2015,07,17,02,40,12.80
2015,07,17,02,41,12.80
2015,07,17,02,42,12.70
2015,07,17,02,43,12.70
2015,07,17,02,44,12.70
2015,07,17,02,45,12.70
2015,07,17,02,46,12.70
2015,07,17,02,47,12.60
2015,07,17,02,48,12.60
2015,07,17,02,49,12.60
2015,07,17,02,50,12.60
2015,07,17,02,51,12.60
2015,07,17,02,52,12.60
2015,07,17,02,53,12.50
2015,07,17,02,54,12.50
2015,07,17,02,55,12.50
2015,07,17,02,56,12.50
2015,07,17,02,57,12.50
2015,07,17,02,58,12.50
2015,07,17,02,59,12.60
2015,07,17,03,00,12.60
2015,07,17,03,01,12.60
2015,07,17,03,02,12.60
2015,07,17,03,03,12.60
2015,07,17,03,04,12.70
2015,07,17,03,05,12.70
2015,07,17,03,06,12.70
2015,07,17,03,07,12.70
2015,07,17,03,08,12.70
2015,07,17,03,09,12.70
2015,07,17,03,10,12.70
2015,07,17,03,11,12.70
2015,07,17,03,12,12.70
2015,07,17,03,13,12.60
2015,07,17,03,14,12.60
2015,07,17,03,15,12.60
2015,07,17,03,16,12.50
2015,07,17,03,17,12.50
2015,07,17,03,18,12.50
2015,07,17,03,19,12.40
2015,07,17,03,20,12.40
2015,07,17,03,21,12.40
2015,07,17,03,22,12.40
2015,07,17,03,23,12.40
2015,07,17,03,24,12.40
2015,07,17,03,25,12.30
2015,07,17,03,26,12.30
2015,07,17,03,27,12.30
2015,07,17,03,28,12.30
2015,07,17,03,29,12.30
2015,07,17,03,30,12.20
2015,07,17,03,31,12.20
2015,07,17,03,32,12.20
2015,07,17,03,33,12.20
2015,07,17,03,34,12.20
2015,07,17,03,35,12.20
2015,07,17,03,36,12.20
2015,07,17,03,37,12.10
2015,07,17,03,38,12.10
2015,07,17,03,39,12.10
2015,07,17,03,40,12.10
2015,07,17,03,41,12.10
2015,07,17,03,42,12.10
2015,07,17,03,43,12.10
2015,07,17,03,44,12.10
2015,07,17,03,45,12.10
2015,07,17,03,46,12.10
2015,07,17,03,47,12.10
2015,07,17,03,48,12.10
2015,07,17,03,49,12.10
2015,07,17,03,50,12.10
2015,07,17,03,51,12.10
2015,07,17,03,52,12.10
2015,07,17,03,53,12.10
2015,07,17,03,54,12.10
2015,07,17,03,55,12.10
2015,07,17,03,56,12.10
2015,07,17,03,57,12.10
2015,07,17,03,58,12.10
2015,07,17,03,59,12.20
2015,07,17,04,00,12.20
2015,07,17,04,01,12.20
2015,07,17,04,02,12.20
2015,07,17,04,03,12.20
2015,07,17,04,04,12.20
2015,07,17,04,05,12.20
2015,07,17,04,06,12.20
2015,07,17,04,07,12.20
2015,07,17,04,08,12.20
2015,07,17,04,09,12.20
2015,07,17,04,10,12.20
2015,07,17,04,11,12.20
2015,07,17,04,12,12.20
2015,07,17,04,13,12.20
2015,07,17,04,14,12.20
2015,07,17,04,15,12.20
2015,07,17,04,16,12.20
2015,07,17,04,17,12.20
2015,07,17,04,18,12.20
2015,07,17,04,19,12.20
2015,07,17,04,20,12.20
2015,07,17,04,21,12.20
2015,07,17,04,22,12.20
2015,07,17,04,23,12.10
2015,07,17,04,24,12.10
2015,07,17,04,25,12.10
2015,07,17,04,26,12.10
2015,07,17,04,27,12.10
2015,07,17,04,28,12.10
2015,07,17,04,29,12.10
2015,07,17,04,30,12.10
2015,07,17,04,31,12.10
2015,07,17,04,32,12.10
2015,07,17,04,33,12.10
2015,07,17,04,34,12.10
2015,07,17,04,35,12.10
2015,07,17,04,36,12.10
2015,07,17,04,37,12.10
2015,07,17,04,38,12.10
2015,07,17,04,39,12.10
2015,07,17,04,40,12.10
2015,07,17,04,41,12.10
2015,07,17,04,42,12.10
2015,07,17,04,43,12.10
2015,07,17,04,44,12.10
2015,07,17,04,45,12.10
2015,07,17,04,46,12.10
2015,07,17,04,47,12.10
2015,07,17,04,48,12.00
2015,07,17,04,49,12.00
2015,07,17,04,50,12.00
2015,07,17,04,51,11.90
2015,07,17,04,52,11.90
2015,07,17,04,53,11.90
2015,07,17,04,54,11.90
2015,07,17,04,55,11.90
2015,07,17,04,56,11.90
2015,07,17,04,57,11.90
2015,07,17,04,58,11.90
2015,07,17,04,59,11.90
2015,07,17,05,00,11.90
2015,07,17,05,01,12.00
2015,07,17,05,02,12.00
2015,07,17,05,03,12.00
2015,07,17,05,04,12.10
2015,07,17,05,05,12.10
2015,07,17,05,06,12.10
2015,07,17,05,07,12.10
2015,07,17,05,08,12.10
2015,07,17,05,09,12.10
2015,07,17,05,10,12.00
2015,07,17,05,11,12.00
2015,07,17,05,12,11.90
2015,07,17,05,13,11.90
2015,07,17,05,14,11.90
2015,07,17,05,15,11.90
2015,07,17,05,16,11.80
2015,07,17,05,17,11.80
2015,07,17,05,18,11.80
2015,07,17,05,19,11.80
2015,07,17,05,20,11.80
2015,07,17,05,21,11.70
2015,07,17,05,22,11.70
2015,07,17,05,23,11.70
2015,07,17,05,24,11.70
2015,07,17,05,25,11.70
2015,07,17,05,26,11.70
2015,07,17,05,27,11.80
2015,07,17,05,28,11.80
2015,07,17,05,29,11.80
2015,07,17,05,30,11.80
2015,07,17,05,31,11.80
2015,07,17,05,32,11.80
2015,07,17,05,33,11.80
2015,07,17,05,34,11.80
2015,07,17,05,35,11.80
2015,07,17,05,36,11.80
2015,07,17,05,37,11.80
2015,07,17,05,38,11.80
2015,07,17,05,39,11.90
2015,07,17,05,40,11.80
2015,07,17,05,41,11.80
2015,07,17,05,42,11.80
2015,07,17,05,43,11.80
2015,07,17,05,44,11.80
2015,07,17,05,45,11.80
2015,07,17,05,46,11.80
2015,07,17,05,47,11.80
2015,07,17,05,48,11.80
2015,07,17,05,49,11.80
2015,07,17,05,50,11.80
2015,07,17,05,51,11.80
2015,07,17,05,52,11.80
2015,07,17,05,53,11.90
2015,07,17,05,54,11.90
2015,07,17,05,55,11.90
2015,07,17,05,56,11.80
2015,07,17,05,57,11.80
2015,07,17,05,58,11.80
2015,07,17,05,59,11.70
2015,07,17,06,00,11.70
2015,07,17,06,01,11.70
2015,07,17,06,02,11.70
2015,07,17,06,03,11.60
2015,07,17,06,04,11.60
2015,07,17,06,05,11.60
2015,07,17,06,06,11.60
2015,07,17,06,07,11.60
2015,07,17,06,08,11.60
2015,07,17,06,09,11.60
2015,07,17,06,10,11.60
2015,07,17,06,11,11.60
2015,07,17,06,12,11.60
2015,07,17,06,13,11.60
2015,07,17,06,14,11.60
2015,07,17,06,15,11.60
2015,07,17,06,16,11.60
2015,07,17,06,17,11.60
2015,07,17,06,18,11.60
2015,07,17,06,19,11.60
2015,07,17,06,20,11.70
2015,07,17,06,21,11.70
2015,07,17,06,22,11.70
2015,07,17,06,23,11.70
2015,07,17,06,24,11.70
2015,07,17,06,25,11.70
2015,07,17,06,26,11.70
2015,07,17,06,27,11.70
2015,07,17,06,28,11.70
2015,07,17,06,29,11.80
2015,07,17,06,30,11.80
2015,07,17,06,31,11.80
2015,07,17,06,32,11.90
2015,07,17,06,33,11.90
2015,07,17,06,34,11.90
2015,07,17,06,35,12.00
2015,07,17,06,36,12.00
2015,07,17,06,37,12.10
2015,07,17,06,38,12.10
2015,07,17,06,39,12.20
2015,07,17,06,40,12.20
2015,07,17,06,41,12.20
2015,07,17,06,42,12.30
2015,07,17,06,43,12.30
2015,07,17,06,44,12.30
2015,07,17,06,45,12.30
2015,07,17,06,46,12.30
2015,07,17,06,47,12.40
2015,07,17,06,48,12.40
2015,07,17,06,49,12.40
2015,07,17,06,50,12.40
2015,07,17,06,51,12.50
2015,07,17,06,52,12.50
2015,07,17,06,53,12.60
2015,07,17,06,54,12.60
2015,07,17,06,55,12.70
2015,07,17,06,56,12.80
2015,07,17,06,57,12.80
2015,07,17,06,58,12.90
2015,07,17,06,59,13.00
2015,07,17,07,00,13.00
2015,07,17,07,01,13.10
2015,07,17,07,02,13.10
2015,07,17,07,03,13.20
2015,07,17,07,04,13.30
2015,07,17,07,05,13.30
2015,07,17,07,06,13.40
2015,07,17,07,07,13.40
2015,07,17,07,08,13.50
2015,07,17,07,09,13.50
2015,07,17,07,10,13.60
2015,07,17,07,11,13.60
2015,07,17,07,12,13.70
2015,07,17,07,13,13.70
2015,07,17,07,14,13.70
2015,07,17,07,15,13.80
2015,07,17,07,16,13.90
2015,07,17,07,17,13.90
2015,07,17,07,18,14.00
2015,07,17,07,19,14.00
2015,07,17,07,20,14.00
2015,07,17,07,21,14.10
2015,07,17,07,22,14.10
2015,07,17,07,23,14.10
2015,07,17,07,24,14.20
2015,07,17,07,25,14.20
2015,07,17,07,26,14.20
2015,07,17,07,27,14.30
2015,07,17,07,28,14.30
2015,07,17,07,29,14.30
2015,07,17,07,30,14.30
2015,07,17,07,31,14.40
2015,07,17,07,32,14.40
2015,07,17,07,33,14.40
2015,07,17,07,34,14.50
2015,07,17,07,35,14.60
2015,07,17,07,36,14.60
2015,07,17,07,37,14.70
2015,07,17,07,38,14.70
2015,07,17,07,39,14.80
2015,07,17,07,40,14.80
2015,07,17,07,41,14.80
2015,07,17,07,42,14.80
2015,07,17,07,43,14.90
2015,07,17,07,44,15.00
2015,07,17,07,45,15.00
2015,07,17,07,46,15.10
2015,07,17,07,47,15.10
2015,07,17,07,48,15.20
2015,07,17,07,49,15.20
2015,07,17,07,50,15.20
2015,07,17,07,51,15.30
2015,07,17,07,52,15.40
2015,07,17,07,53,15.40
2015,07,17,07,54,15.50
2015,07,17,07,55,15.60
2015,07,17,07,56,15.70
2015,07,17,07,57,15.80
2015,07,17,07,58,15.80
2015,07,17,07,59,15.90
2015,07,17,08,00,15.90
2015,07,17,08,01,16.00
2015,07,17,08,02,16.00
2015,07,17,08,03,16.10
2015,07,17,08,04,16.10
2015,07,17,08,05,16.20
2015,07,17,08,06,16.20
2015,07,17,08,07,16.30
2015,07,17,08,08,16.30
2015,07,17,08,09,16.40
2015,07,17,08,10,16.50
2015,07,17,08,11,16.70
2015,07,17,08,12,16.80
2015,07,17,08,13,16.90
2015,07,17,08,14,17.00
2015,07,17,08,15,17.10
2015,07,17,08,16,17.20
2015,07,17,08,17,17.20
2015,07,17,08,18,17.30
2015,07,17,08,19,17.40
2015,07,17,08,20,17.50
2015,07,17,08,21,17.60
2015,07,17,08,22,17.70
2015,07,17,08,23,17.80
2015,07,17,08,24,17.90
2015,07,17,08,25,18.00
2015,07,17,08,26,18.10
2015,07,17,08,27,18.20
2015,07,17,08,28,18.30
2015,07,17,08,29,18.40
2015,07,17,08,30,18.40
2015,07,17,08,31,18.50
2015,07,17,08,32,18.50
2015,07,17,08,33,18.50
2015,07,17,08,34,18.50
2015,07,17,08,35,18.50
2015,07,17,08,36,18.50
2015,07,17,08,37,18.60
2015,07,17,08,38,18.60
2015,07,17,08,39,18.70
2015,07,17,08,40,18.70
2015,07,17,08,41,18.70
2015,07,17,08,42,18.70
2015,07,17,08,43,18.80
2015,07,17,08,44,18.80
2015,07,17,08,45,18.90
2015,07,17,08,46,18.90
2015,07,17,08,47,19.00
2015,07,17,08,48,19.10
2015,07,17,08,49,19.20
2015,07,17,08,50,19.20
2015,07,17,08,51,19.30
2015,07,17,08,52,19.40
2015,07,17,08,53,19.50
2015,07,17,08,54,19.60
2015,07,17,08,55,19.60
2015,07,17,08,56,19.60
2015,07,17,08,57,19.60
2015,07,17,08,58,19.70
2015,07,17,08,59,19.60
2015,07,17,09,00,19.50
2015,07,17,09,01,19.40
2015,07,17,09,02,19.20
2015,07,17,09,03,19.00
2015,07,17,09,04,18.90
2015,07,17,09,05,18.80
2015,07,17,09,06,18.70
2015,07,17,09,07,18.70
2015,07,17,09,08,18.60
2015,07,17,09,09,18.60
2015,07,17,09,10,18.60
2015,07,17,09,11,18.70
2015,07,17,09,12,18.70
2015,07,17,09,13,18.70
2015,07,17,09,14,18.70
2015,07,17,09,15,18.80
2015,07,17,09,16,18.80
2015,07,17,09,17,18.80
2015,07,17,09,18,18.80
2015,07,17,09,19,18.80
2015,07,17,09,20,18.80
2015,07,17,09,21,18.80
2015,07,17,09,22,18.90
2015,07,17,09,23,18.90
2015,07,17,09,24,18.90
2015,07,17,09,25,18.80
2015,07,17,09,26,18.80
2015,07,17,09,27,18.80
2015,07,17,09,28,18.90
2015,07,17,09,29,18.90
2015,07,17,09,30,19.00
2015,07,17,09,31,19.00
2015,07,17,09,32,19.10
2015,07,17,09,33,19.10
2015,07,17,09,34,19.20
2015,07,17,09,35,19.20
2015,07,17,09,36,19.20
2015,07,17,09,37,19.20
2015,07,17,09,38,19.20
2015,07,17,09,39,19.10
2015,07,17,09,40,19.00
2015,07,17,09,41,18.90
2015,07,17,09,42,18.90
2015,07,17,09,43,18.80
2015,07,17,09,44,18.70
2015,07,17,09,45,18.60
2015,07,17,09,46,18.60
2015,07,17,09,47,18.50
2015,07,17,09,48,18.50
2015,07,17,09,49,18.50
2015,07,17,09,50,18.50
2015,07,17,09,51,18.50
2015,07,17,09,52,18.40
2015,07,17,09,53,18.40
2015,07,17,09,54,18.40
2015,07,17,09,55,18.40
2015,07,17,09,56,18.40
2015,07,17,09,57,18.30
2015,07,17,09,58,18.30
2015,07,17,09,59,18.30
2015,07,17,10,00,18.20
2015,07,17,10,01,18.20
2015,07,17,10,02,18.20
2015,07,17,10,03,18.20
2015,07,17,10,04,18.20
2015,07,17,10,05,18.20
2015,07,17,10,06,18.20
2015,07,17,10,07,18.30
2015,07,17,10,08,18.40
2015,07,17,10,09,18.50
2015,07,17,10,10,18.60
2015,07,17,10,11,18.70
2015,07,17,10,12,18.80
2015,07,17,10,13,19.00
2015,07,17,10,14,19.10
2015,07,17,10,15,19.20
2015,07,17,10,16,19.30
2015,07,17,10,17,19.40
2015,07,17,10,18,19.50
2015,07,17,10,19,19.60
2015,07,17,10,20,19.70
2015,07,17,10,21,19.80
2015,07,17,10,22,19.90
2015,07,17,10,23,20.00
2015,07,17,10,24,20.00
2015,07,17,10,25,20.10
2015,07,17,10,26,20.20
2015,07,17,10,27,20.20
2015,07,17,10,28,20.20
2015,07,17,10,29,20.10
2015,07,17,10,30,20.10
2015,07,17,10,31,20.10
2015,07,17,10,32,20.10
2015,07,17,10,33,20.20
2015,07,17,10,34,20.20
2015,07,17,10,35,20.20
2015,07,17,10,36,20.20
2015,07,17,10,37,20.30
2015,07,17,10,38,20.30
2015,07,17,10,39,20.30
2015,07,17,10,40,20.30
2015,07,17,10,41,20.30
2015,07,17,10,42,20.30
2015,07,17,10,43,20.30
2015,07,17,10,44,20.20
2015,07,17,10,45,20.30
2015,07,17,10,46,20.30
2015,07,17,10,47,20.30
2015,07,17,10,48,20.30
2015,07,17,10,49,20.20
2015,07,17,10,50,20.30
2015,07,17,10,51,20.30
2015,07,17,10,52,20.40
2015,07,17,10,53,20.40
2015,07,17,10,54,20.50
2015,07,17,10,55,20.60
2015,07,17,10,56,20.70
2015,07,17,10,57,20.70
2015,07,17,10,58,20.80
2015,07,17,10,59,20.80
2015,07,17,11,00,20.80
2015,07,17,11,01,20.90
2015,07,17,11,02,20.80
2015,07,17,11,03,20.80
2015,07,17,11,04,20.70
2015,07,17,11,05,20.80
2015,07,17,11,06,20.80
2015,07,17,11,07,20.80
2015,07,17,11,08,20.80
2015,07,17,11,09,20.70
2015,07,17,11,10,20.70
2015,07,17,11,11,20.80
2015,07,17,11,12,20.90
2015,07,17,11,13,20.90
2015,07,17,11,14,21.00
2015,07,17,11,15,20.90
2015,07,17,11,16,20.90
2015,07,17,11,17,20.90
2015,07,17,11,18,20.90
2015,07,17,11,19,20.90
2015,07,17,11,20,20.90
2015,07,17,11,21,20.90
2015,07,17,11,22,21.00
2015,07,17,11,23,21.10
2015,07,17,11,24,21.10
2015,07,17,11,25,21.10
2015,07,17,11,26,21.10
2015,07,17,11,27,21.10
2015,07,17,11,28,21.10
2015,07,17,11,29,21.20
2015,07,17,11,30,21.20
2015,07,17,11,31,21.20
2015,07,17,11,32,21.20
2015,07,17,11,33,21.20
2015,07,17,11,34,21.10
2015,07,17,11,35,21.20
2015,07,17,11,36,21.20
2015,07,17,11,37,21.20
2015,07,17,11,38,21.30
2015,07,17,11,39,21.30
2015,07,17,11,40,21.30
2015,07,17,11,41,21.40
2015,07,17,11,42,21.40
2015,07,17,11,43,21.50
2015,07,17,11,44,21.50
2015,07,17,11,45,21.60
2015,07,17,11,46,21.70
2015,07,17,11,47,21.70
2015,07,17,11,48,21.70
2015,07,17,11,49,21.80
2015,07,17,11,50,21.80
2015,07,17,11,51,21.90
2015,07,17,11,52,21.90
2015,07,17,11,53,21.90
2015,07,17,11,54,21.90
2015,07,17,11,55,21.90
2015,07,17,11,56,22.00
2015,07,17,11,57,22.00
2015,07,17,11,58,21.90
2015,07,17,11,59,21.90
2015,07,17,12,00,22.00
2015,07,17,12,01,22.10
2015,07,17,12,02,22.10
2015,07,17,12,03,22.20
2015,07,17,12,04,22.20
2015,07,17,12,05,22.10
2015,07,17,12,06,22.10
2015,07,17,12,07,22.10
2015,07,17,12,08,22.20
2015,07,17,12,09,22.30
2015,07,17,12,10,22.40
2015,07,17,12,11,22.50
2015,07,17,12,12,22.60
2015,07,17,12,13,22.50
2015,07,17,12,14,22.40
2015,07,17,12,15,22.20
2015,07,17,12,16,22.10
2015,07,17,12,17,22.00
2015,07,17,12,18,21.90
2015,07,17,12,19,21.60
2015,07,17,12,20,21.50
2015,07,17,12,21,21.50
2015,07,17,12,22,21.60
2015,07,17,12,23,21.70
2015,07,17,12,24,21.90
2015,07,17,12,25,22.00
2015,07,17,12,26,22.00
2015,07,17,12,27,22.10
2015,07,17,12,28,22.10
2015,07,17,12,29,22.20
2015,07,17,12,30,22.20
2015,07,17,12,31,22.20
2015,07,17,12,32,22.20
2015,07,17,12,33,22.10
2015,07,17,12,34,22.00
2015,07,17,12,35,21.80
2015,07,17,12,36,21.60
2015,07,17,12,37,21.50
2015,07,17,12,38,21.50
2015,07,17,12,39,21.50
2015,07,17,12,40,21.40
2015,07,17,12,41,21.40
2015,07,17,12,42,21.40
2015,07,17,12,43,21.40
2015,07,17,12,44,21.50
2015,07,17,12,45,21.60
2015,07,17,12,46,21.70
2015,07,17,12,47,21.80
2015,07,17,12,48,21.80
2015,07,17,12,49,21.80
2015,07,17,12,50,21.90
2015,07,17,12,51,22.00
2015,07,17,12,52,22.20
2015,07,17,12,53,22.20
2015,07,17,12,54,22.00
2015,07,17,12,55,21.70
2015,07,17,12,56,21.50
2015,07,17,12,57,21.20
2015,07,17,12,58,21.10
2015,07,17,12,59,21.10
2015,07,17,13,00,21.10
2015,07,17,13,01,21.10
2015,07,17,13,02,21.10
2015,07,17,13,03,21.20
2015,07,17,13,04,21.20
2015,07,17,13,05,21.40
2015,07,17,13,06,21.50
2015,07,17,13,07,21.60
2015,07,17,13,08,21.70
2015,07,17,13,09,21.80
2015,07,17,13,10,21.90
2015,07,17,13,11,22.00
2015,07,17,13,12,22.10
2015,07,17,13,13,22.20
2015,07,17,13,14,22.20
2015,07,17,13,15,22.20
2015,07,17,13,16,22.20
2015,07,17,13,17,22.20
2015,07,17,13,18,22.20
2015,07,17,13,19,22.20
2015,07,17,13,20,22.20
2015,07,17,13,21,22.10
2015,07,17,13,22,21.90
2015,07,17,13,23,21.70
2015,07,17,13,24,21.60
2015,07,17,13,25,21.50
2015,07,17,13,26,21.50
2015,07,17,13,27,21.40
2015,07,17,13,28,21.40
2015,07,17,13,29,21.40
2015,07,17,13,30,21.50
2015,07,17,13,31,21.50
2015,07,17,13,32,21.40
2015,07,17,13,33,21.50
2015,07,17,13,34,21.60
2015,07,17,13,35,21.50
2015,07,17,13,36,21.40
2015,07,17,13,37,21.40
2015,07,17,13,38,21.40
2015,07,17,13,39,21.50
2015,07,17,13,40,21.60
2015,07,17,13,41,21.60
2015,07,17,13,42,21.70
2015,07,17,13,43,21.70
2015,07,17,13,44,21.80
2015,07,17,13,45,21.80
2015,07,17,13,46,21.80
2015,07,17,13,47,21.90
2015,07,17,13,48,22.00
2015,07,17,13,49,22.10
2015,07,17,13,50,22.20
2015,07,17,13,51,22.30
2015,07,17,13,52,22.30
2015,07,17,13,53,22.30
2015,07,17,13,54,22.10
2015,07,17,13,55,22.00
2015,07,17,13,56,21.90
2015,07,17,13,57,21.80
2015,07,17,13,58,21.70
2015,07,17,13,59,21.50
2015,07,17,14,00,21.50
2015,07,17,14,01,21.40
2015,07,17,14,02,21.40
2015,07,17,14,03,21.50
2015,07,17,14,04,21.50
2015,07,17,14,05,21.60
2015,07,17,14,06,21.70
2015,07,17,14,07,21.80
2015,07,17,14,08,21.80
2015,07,17,14,09,21.90
2015,07,17,14,10,21.90
2015,07,17,14,11,22.00
2015,07,17,14,12,22.00
2015,07,17,14,13,22.10
2015,07,17,14,14,22.20
2015,07,17,14,15,22.30
2015,07,17,14,16,22.30
2015,07,17,14,17,22.40
2015,07,17,14,18,22.40
2015,07,17,14,19,22.50
2015,07,17,14,20,22.50
2015,07,17,14,21,22.50
2015,07,17,14,22,22.50
2015,07,17,14,23,22.40
2015,07,17,14,24,22.40
2015,07,17,14,25,22.40
2015,07,17,14,26,22.40
2015,07,17,14,27,22.40
2015,07,17,14,28,22.50
2015,07,17,14,29,22.60
2015,07,17,14,30,22.70
2015,07,17,14,31,22.80
2015,07,17,14,32,22.80
2015,07,17,14,33,22.70
2015,07,17,14,34,22.80
2015,07,17,14,35,22.80
2015,07,17,14,36,22.90
2015,07,17,14,37,22.90
2015,07,17,14,38,22.80
2015,07,17,14,39,22.80
2015,07,17,14,40,22.60
2015,07,17,14,41,22.50
2015,07,17,14,42,22.40
2015,07,17,14,43,22.30
2015,07,17,14,44,22.20
2015,07,17,14,45,22.10
2015,07,17,14,46,22.10
2015,07,17,14,47,22.10
2015,07,17,14,48,22.20
2015,07,17,14,49,22.20
2015,07,17,14,50,22.20
2015,07,17,14,51,22.10
2015,07,17,14,52,22.10
2015,07,17,14,53,22.10
2015,07,17,14,54,22.10
2015,07,17,14,55,22.00
2015,07,17,14,56,22.00
2015,07,17,14,57,21.90
2015,07,17,14,58,22.00
2015,07,17,14,59,22.00
2015,07,17,15,00,22.10
2015,07,17,15,01,22.30
2015,07,17,15,02,22.40
2015,07,17,15,03,22.50
2015,07,17,15,04,22.70
2015,07,17,15,05,22.80
2015,07,17,15,06,22.90
2015,07,17,15,07,22.90
2015,07,17,15,08,23.00
2015,07,17,15,09,23.00
2015,07,17,15,10,23.10
2015,07,17,15,11,23.20
2015,07,17,15,12,23.30
2015,07,17,15,13,23.50
2015,07,17,15,14,23.60
2015,07,17,15,15,23.80
2015,07,17,15,16,24.00
2015,07,17,15,17,24.20
2015,07,17,15,18,24.40
2015,07,17,15,19,24.60
2015,07,17,15,20,24.80
2015,07,17,15,21,25.00
2015,07,17,15,22,25.20
2015,07,17,15,23,25.30
2015,07,17,15,24,25.30
2015,07,17,15,25,25.40
2015,07,17,15,26,25.50
2015,07,17,15,27,25.60
2015,07,17,15,28,25.70
2015,07,17,15,29,25.70
2015,07,17,15,30,25.70
2015,07,17,15,31,25.60
2015,07,17,15,32,25.50
2015,07,17,15,33,25.40
2015,07,17,15,34,25.40
2015,07,17,15,35,25.30
2015,07,17,15,36,25.40
2015,07,17,15,37,25.40
2015,07,17,15,38,25.40
2015,07,17,15,39,25.40
2015,07,17,15,40,25.40
2015,07,17,15,41,25.40
2015,07,17,15,42,25.40
2015,07,17,15,43,25.30
2015,07,17,15,44,25.30
2015,07,17,15,45,25.30
2015,07,17,15,46,25.20
2015,07,17,15,47,25.20
2015,07,17,15,48,25.20
2015,07,17,15,49,25.20
2015,07,17,15,50,25.20
2015,07,17,15,51,25.30
2015,07,17,15,52,25.30
2015,07,17,15,53,25.30
2015,07,17,15,54,25.30
2015,07,17,15,55,25.30
2015,07,17,15,56,25.30
2015,07,17,15,57,25.30
2015,07,17,15,58,25.30
2015,07,17,15,59,25.20
2015,07,17,16,00,25.00
2015,07,17,16,01,24.90
2015,07,17,16,02,24.80
2015,07,17,16,03,24.70
2015,07,17,16,04,24.60
2015,07,17,16,05,24.60
2015,07,17,16,06,24.50
2015,07,17,16,07,24.40
2015,07,17,16,08,24.30
2015,07,17,16,09,24.10
2015,07,17,16,10,24.10
2015,07,17,16,11,24.00
2015,07,17,16,12,23.90
2015,07,17,16,13,23.90
2015,07,17,16,14,23.90
2015,07,17,16,15,23.90
2015,07,17,16,16,23.80
2015,07,17,16,17,23.70
2015,07,17,16,18,23.60
2015,07,17,16,19,23.60
2015,07,17,16,20,23.50
2015,07,17,16,21,23.40
2015,07,17,16,22,23.30
2015,07,17,16,23,23.10
2015,07,17,16,24,23.00
2015,07,17,16,25,22.80
2015,07,17,16,26,22.70
2015,07,17,16,27,22.60
2015,07,17,16,28,22.50
2015,07,17,16,29,22.50
2015,07,17,16,30,22.50
2015,07,17,16,31,22.60
2015,07,17,16,32,22.60
2015,07,17,16,33,22.60
2015,07,17,16,34,22.60
2015,07,17,16,35,22.60
2015,07,17,16,36,22.60
2015,07,17,16,37,22.60
2015,07,17,16,38,22.50
2015,07,17,16,39,22.40
2015,07,17,16,40,22.40
2015,07,17,16,41,22.30
2015,07,17,16,42,22.30
2015,07,17,16,43,22.20
2015,07,17,16,44,22.30
2015,07,17,16,45,22.30
2015,07,17,16,46,22.40
2015,07,17,16,47,22.50
2015,07,17,16,48,22.60
2015,07,17,16,49,22.70
2015,07,17,16,50,22.80
2015,07,17,16,51,22.90
2015,07,17,16,52,22.90
2015,07,17,16,53,23.00
2015,07,17,16,54,23.00
2015,07,17,16,55,22.90
2015,07,17,16,56,22.90
2015,07,17,16,57,22.90
2015,07,17,16,58,22.90
2015,07,17,16,59,23.00
2015,07,17,17,00,23.00
2015,07,17,17,01,22.90
2015,07,17,17,02,22.90
2015,07,17,17,03,22.90
2015,07,17,17,04,22.90
2015,07,17,17,05,22.80
2015,07,17,17,06,22.90
2015,07,17,17,07,23.00
2015,07,17,17,08,23.00
2015,07,17,17,09,23.10
2015,07,17,17,10,23.20
2015,07,17,17,11,23.30
2015,07,17,17,12,23.30
2015,07,17,17,13,23.30
2015,07,17,17,14,23.40
2015,07,17,17,15,23.60
2015,07,17,17,16,23.70
2015,07,17,17,17,23.70
2015,07,17,17,18,23.80
2015,07,17,17,19,23.90